STARLINK-2322 (47791 NORAD) Tracking and Keplerian Element Data

This shows tracking and keplerian element data for the satellite.

Feedback or suggestion? Click here.




ElementValue
Catalog47791
NameSTARLINK-2322
Epoch Orbit1672
Epoch Day170.4490743
Epoch Year2021
RAAN71.6989
Inclination53.0869
Eccentricity0.0003453
Argument of Perigee34.3128
Mean Anonmoly325.8083
Mean Motion15.05576592
Decay Rate-1.29E-05
L11 47791U 21018E 21170.44907430 -.00001290 00000-0 -69340-4 0 9992
L22 47791 53.0869 71.6989 0003453 34.3128 325.8083 15.05576592 16727

Live tracking and technical data element details for STARLINK-2322 (NORAD 47791). STARLINK-2322 can be tracked NOW for your location showing map with azimuth and elevation plus other details from your city location.

Track the satellite on the map from your city or location and see movement details for azimuth, elevation, latitude, longitude, range, height, and movement on the map or in text.







IsCatalogInMostPopularTable: catalog: 47791, numindb: 43
Update: records affected: 1



GetName: 47791 STARLINK-2322

Hit Count: updated at: Mon, 21 Jun 2021 02:58:28 GMT